Time,TemperatureF,DewpointF,PressureIn,WindDirection,WindDirectionDegrees,WindSpeedMPH,WindSpeedGustMPH,Humidity,HourlyPrecipIn,Conditions,Clouds,dailyrainin,SoftwareType,DateUTC
2013-02-07 00:04:00,46.0,43.8,30.10,NW,321,0.0,0.0,92,0.00,,,0.00,Wunderground v.1.15,2013-02-07 08:04:00,
2013-02-07 00:14:00,45.8,43.9,30.10,NW,321,0.0,0.0,93,0.00,,,0.00,Wunderground v.1.15,2013-02-07 08:14:00,
2013-02-07 00:23:00,46.1,44.2,30.10,NW,321,0.0,0.0,93,0.00,,,0.00,Wunderground v.1.15,2013-02-07 08:23:00,
2013-02-07 00:34:00,46.4,44.8,30.10,NW,321,0.0,0.0,94,0.00,,,0.00,Wunderground v.1.15,2013-02-07 08:34:00,
2013-02-07 00:44:00,46.2,44.3,30.10,NW,321,0.0,0.0,93,0.00,,,0.00,Wunderground v.1.15,2013-02-07 08:44:00,
2013-02-07 00:54:00,46.5,44.9,30.10,ESE,110,0.0,0.0,94,0.00,,,0.00,Wunderground v.1.15,2013-02-07 08:54:00,
2013-02-07 01:03:00,47.2,45.6,30.10,ESE,109,0.0,0.0,94,0.00,,,0.00,Wunderground v.1.15,2013-02-07 09:03:00,
2013-02-07 01:13:00,47.6,46.0,30.10,ESE,109,0.0,0.0,94,0.00,,,0.00,Wunderground v.1.15,2013-02-07 09:13:00,
2013-02-07 01:23:00,47.7,46.1,30.10,ESE,109,0.0,0.0,94,0.00,,,0.00,Wunderground v.1.15,2013-02-07 09:23:00,
2013-02-07 01:34:00,47.9,46.3,30.10,East,85,0.0,0.0,94,0.00,,,0.00,Wunderground v.1.15,2013-02-07 09:34:00,
2013-02-07 01:44:00,47.5,45.6,30.10,East,85,0.0,0.0,93,0.00,,,0.00,Wunderground v.1.15,2013-02-07 09:44:00,
2013-02-07 01:53:00,46.9,45.0,30.09,East,85,0.0,0.0,93,0.00,,,0.00,Wunderground v.1.15,2013-02-07 09:53:00,
2013-02-07 02:04:00,46.6,44.7,30.09,East,85,0.0,0.0,93,0.00,,,0.00,Wunderground v.1.15,2013-02-07 10:04:00,
2013-02-07 02:14:00,46.1,44.2,30.10,East,85,0.0,0.0,93,0.00,,,0.00,Wunderground v.1.15,2013-02-07 10:14:00,
2013-02-07 02:24:00,46.2,44.3,30.09,East,85,0.0,0.0,93,0.00,,,0.00,Wunderground v.1.15,2013-02-07 10:24:00,
2013-02-07 02:33:00,45.8,43.6,30.09,East,85,0.0,0.0,92,0.00,,,0.00,Wunderground v.1.15,2013-02-07 10:33:00,
2013-02-07 02:44:00,45.4,43.5,30.09,East,85,0.0,0.0,93,0.00,,,0.00,Wunderground v.1.15,2013-02-07 10:44:00,
2013-02-07 02:54:00,45.2,43.3,30.09,East,85,0.0,0.0,93,0.00,,,0.00,Wunderground v.1.15,2013-02-07 10:54:00,
2013-02-07 03:03:00,44.6,42.4,30.09,East,85,0.0,0.0,92,0.00,,,0.00,Wunderground v.1.15,2013-02-07 11:03:00,
2013-02-07 03:14:00,43.6,41.4,30.09,East,85,0.0,0.0,92,0.00,,,0.00,Wunderground v.1.15,2013-02-07 11:14:00,
2013-02-07 03:24:00,43.1,41.2,30.09,East,86,0.0,0.0,93,0.00,,,0.00,Wunderground v.1.15,2013-02-07 11:24:00,
2013-02-07 03:34:00,42.9,41.0,30.08,East,86,0.0,0.0,93,0.00,,,0.00,Wunderground v.1.15,2013-02-07 11:34:00,
2013-02-07 03:43:00,42.9,41.3,30.08,East,86,0.0,0.0,94,0.00,,,0.00,Wunderground v.1.15,2013-02-07 11:43:00,
2013-02-07 03:54:00,43.3,41.7,30.08,East,86,0.0,0.0,94,0.00,,,0.00,Wunderground v.1.15,2013-02-07 11:54:00,
2013-02-07 04:03:00,42.9,41.0,30.09,East,86,0.0,0.0,93,0.00,,,0.00,Wunderground v.1.15,2013-02-07 12:03:00,
2013-02-07 04:14:00,42.9,41.3,30.09,East,86,0.0,0.0,94,0.00,,,0.00,Wunderground v.1.15,2013-02-07 12:14:00,
2013-02-07 04:24:00,43.1,41.5,30.09,East,86,0.0,0.0,94,0.00,,,0.00,Wunderground v.1.15,2013-02-07 12:24:00,
2013-02-07 04:33:00,43.4,41.8,30.09,East,86,0.0,0.0,94,0.00,,,0.00,Wunderground v.1.15,2013-02-07 12:33:00,
2013-02-07 04:43:00,43.4,41.8,30.09,East,86,0.0,0.0,94,0.00,,,0.00,Wunderground v.1.15,2013-02-07 12:43:00,
2013-02-07 04:54:00,43.0,41.4,30.09,East,88,0.0,0.0,94,0.00,,,0.00,Wunderground v.1.15,2013-02-07 12:54:00,
2013-02-07 05:03:00,42.4,40.8,30.09,East,88,0.0,0.0,94,0.00,,,0.00,Wunderground v.1.15,2013-02-07 13:03:00,
2013-02-07 05:14:00,42.3,40.7,30.09,East,88,0.0,0.0,94,0.00,,,0.00,Wunderground v.1.15,2013-02-07 13:14:00,
2013-02-07 05:24:00,42.2,40.6,30.10,East,88,0.0,0.0,94,0.00,,,0.00,Wunderground v.1.15,2013-02-07 13:24:00,
2013-02-07 05:33:00,42.6,41.3,30.09,East,88,0.0,0.0,95,0.00,,,0.00,Wunderground v.1.15,2013-02-07 13:33:00,
2013-02-07 05:44:00,42.6,41.0,30.09,East,88,0.0,0.0,94,0.00,,,0.00,Wunderground v.1.15,2013-02-07 13:44:00,
2013-02-07 05:54:00,42.5,40.9,30.10,East,88,0.0,0.0,94,0.00,,,0.00,Wunderground v.1.15,2013-02-07 13:54:00,
2013-02-07 06:04:00,42.6,41.3,30.10,East,88,0.0,0.0,95,0.00,,,0.00,Wunderground v.1.15,2013-02-07 14:04:00,
2013-02-07 06:14:00,42.4,40.8,30.10,East,88,0.0,0.0,94,0.00,,,0.00,Wunderground v.1.15,2013-02-07 14:14:00,
2013-02-07 06:23:00,42.1,40.5,30.10,East,88,0.0,0.0,94,0.00,,,0.00,Wunderground v.1.15,2013-02-07 14:23:00,
2013-02-07 06:34:00,42.0,40.4,30.10,East,88,0.0,0.0,94,0.00,,,0.00,Wunderground v.1.15,2013-02-07 14:34:00,
2013-02-07 06:44:00,42.3,41.0,30.10,East,88,0.0,0.0,95,0.00,,,0.00,Wunderground v.1.15,2013-02-07 14:44:00,
2013-02-07 06:54:00,42.1,40.5,30.11,East,88,0.0,0.0,94,0.00,,,0.00,Wunderground v.1.15,2013-02-07 14:54:00,
2013-02-07 07:04:00,42.2,40.9,30.11,East,88,0.0,0.0,95,0.00,,,0.00,Wunderground v.1.15,2013-02-07 15:04:00,
2013-02-07 07:14:00,42.3,41.0,30.11,East,88,0.0,0.0,95,0.00,,,0.00,Wunderground v.1.15,2013-02-07 15:14:00,
2013-02-07 07:23:00,42.5,41.2,30.11,East,88,0.0,0.0,95,0.00,,,0.00,Wunderground v.1.15,2013-02-07 15:23:00,
2013-02-07 07:34:00,42.9,41.6,30.11,East,88,0.0,0.0,95,0.00,,,0.00,Wunderground v.1.15,2013-02-07 15:34:00,
2013-02-07 07:44:00,43.9,42.6,30.11,East,88,0.0,0.0,95,0.00,,,0.00,Wunderground v.1.15,2013-02-07 15:44:00,
2013-02-07 07:53:00,44.6,43.3,30.12,East,88,0.0,0.0,95,0.00,,,0.00,Wunderground v.1.15,2013-02-07 15:53:00,
2013-02-07 08:04:00,45.3,43.7,30.11,East,88,0.0,0.0,94,0.00,,,0.00,Wunderground v.1.15,2013-02-07 16:04:00,
2013-02-07 08:13:00,46.3,44.4,30.11,East,88,0.0,0.0,93,0.00,,,0.00,Wunderground v.1.15,2013-02-07 16:13:00,
2013-02-07 08:23:00,48.0,46.4,30.11,East,88,0.0,0.0,94,0.00,,,0.00,Wunderground v.1.15,2013-02-07 16:23:00,
2013-02-07 08:34:00,49.8,47.6,30.12,East,88,0.0,0.0,92,0.00,,,0.00,Wunderground v.1.15,2013-02-07 16:34:00,
2013-02-07 08:44:00,50.9,48.1,30.12,East,88,0.0,0.0,90,0.00,,,0.00,Wunderground v.1.15,2013-02-07 16:44:00,
2013-02-07 08:53:00,51.9,48.8,30.12,East,90,0.0,0.0,89,0.00,,,0.00,Wunderground v.1.15,2013-02-07 16:53:00,
2013-02-07 09:04:00,53.3,49.8,30.12,East,90,0.0,0.0,88,0.00,,,0.00,Wunderground v.1.15,2013-02-07 17:04:00,
2013-02-07 09:14:00,54.4,50.3,30.12,East,92,0.0,0.0,86,0.00,,,0.00,Wunderground v.1.15,2013-02-07 17:14:00,
2013-02-07 09:24:00,55.4,50.6,30.12,West,261,0.0,0.0,84,0.00,,,0.00,Wunderground v.1.15,2013-02-07 17:24:00,
2013-02-07 09:33:00,55.5,50.7,30.12,West,276,0.0,0.0,84,0.00,,,0.00,Wunderground v.1.15,2013-02-07 17:33:00,
2013-02-07 09:44:00,55.6,50.8,30.12,WNW,290,1.0,4.0,84,0.00,,,0.00,Wunderground v.1.15,2013-02-07 17:44:00,
2013-02-07 09:54:00,54.8,50.4,30.12,NW,311,3.0,3.0,85,0.00,,,0.00,Wunderground v.1.15,2013-02-07 17:54:00,
2013-02-07 10:03:00,54.7,50.9,30.12,WNW,286,3.0,3.0,87,0.00,,,0.00,Wunderground v.1.15,2013-02-07 18:03:00,
2013-02-07 10:14:00,55.1,50.7,30.12,SW,227,1.0,1.0,85,0.00,,,0.00,Wunderground v.1.15,2013-02-07 18:14:00,
2013-02-07 10:24:00,55.6,50.8,30.12,WSW,251,1.0,4.0,84,0.00,,,0.00,Wunderground v.1.15,2013-02-07 18:24:00,
2013-02-07 10:34:00,55.3,50.5,30.12,NW,307,2.0,2.0,84,0.00,,,0.00,Wunderground v.1.15,2013-02-07 18:34:00,
2013-02-07 10:43:00,56.0,51.2,30.11,WNW,293,2.0,2.0,84,0.00,,,0.00,Wunderground v.1.15,2013-02-07 18:43:00,
2013-02-07 10:54:00,56.7,51.3,30.11,West,276,2.0,2.0,82,0.00,,,0.00,Wunderground v.1.15,2013-02-07 18:54:00,
2013-02-07 11:04:00,56.0,50.6,30.11,West,277,4.0,4.0,82,0.00,,,0.00,Wunderground v.1.15,2013-02-07 19:04:00,
2013-02-07 11:13:00,56.3,50.9,30.11,WSW,244,2.0,2.0,82,0.00,,,0.00,Wunderground v.1.15,2013-02-07 19:13:00,
2013-02-07 11:23:00,56.4,51.0,30.11,SW,229,3.0,3.0,82,0.00,,,0.00,Wunderground v.1.15,2013-02-07 19:23:00,
2013-02-07 11:34:00,56.4,51.3,30.10,West,271,2.0,2.0,83,0.00,,,0.00,Wunderground v.1.15,2013-02-07 19:34:00,
2013-02-07 11:44:00,56.2,50.8,30.11,WNW,295,4.0,5.0,82,0.00,,,0.00,Wunderground v.1.15,2013-02-07 19:44:00,
2013-02-07 11:54:00,56.7,51.3,30.10,West,271,3.0,4.0,82,0.00,,,0.00,Wunderground v.1.15,2013-02-07 19:54:00,
2013-02-07 12:04:00,56.2,50.8,30.10,West,276,4.0,5.0,82,0.00,,,0.00,Wunderground v.1.15,2013-02-07 20:04:00,
2013-02-07 12:14:00,56.4,50.6,30.09,West,277,3.0,4.0,81,0.00,,,0.00,Wunderground v.1.15,2013-02-07 20:14:00,
2013-02-07 12:23:00,56.3,50.9,30.08,WSW,244,3.0,3.0,82,0.00,,,0.00,Wunderground v.1.15,2013-02-07 20:23:00,
2013-02-07 12:34:00,56.9,51.5,30.08,West,281,2.0,2.0,82,0.00,,,0.00,Wunderground v.1.15,2013-02-07 20:34:00,
2013-02-07 12:44:00,57.2,51.4,30.08,West,265,4.0,6.0,81,0.00,,,0.00,Wunderground v.1.15,2013-02-07 20:44:00,
2013-02-07 12:54:00,56.7,51.3,30.08,West,276,5.0,5.0,82,0.00,,,0.00,Wunderground v.1.15,2013-02-07 20:54:00,
2013-02-07 13:03:00,56.8,51.7,30.06,West,271,4.0,4.0,83,0.00,,,0.00,Wunderground v.1.15,2013-02-07 21:03:00,
2013-02-07 13:14:00,56.6,51.2,30.06,West,271,4.0,4.0,82,0.00,,,0.00,Wunderground v.1.15,2013-02-07 21:14:00,
2013-02-07 13:24:00,56.6,51.5,30.05,SSW,208,3.0,4.0,83,0.00,,,0.00,Wunderground v.1.15,2013-02-07 21:24:00,
2013-02-07 13:34:00,57.0,51.6,30.05,West,262,3.0,5.0,82,0.00,,,0.00,Wunderground v.1.15,2013-02-07 21:34:00,
2013-02-07 13:44:00,57.1,51.7,30.04,WNW,291,3.0,3.0,82,0.00,,,0.00,Wunderground v.1.15,2013-02-07 21:44:00,
2013-02-07 13:53:00,57.1,51.3,30.04,WNW,288,4.0,5.0,81,0.00,,,0.00,Wunderground v.1.15,2013-02-07 21:53:00,
2013-02-07 14:04:00,56.6,51.5,30.04,West,271,5.0,5.0,83,0.00,,,0.00,Wunderground v.1.15,2013-02-07 22:04:00,
2013-02-07 14:14:00,56.5,51.4,30.03,WSW,254,4.0,7.0,83,0.00,,,0.00,Wunderground v.1.15,2013-02-07 22:14:00,
2013-02-07 14:23:00,56.3,51.2,30.03,WNW,302,3.0,3.0,83,0.00,,,0.00,Wunderground v.1.15,2013-02-07 22:23:00,
2013-02-07 14:34:00,55.9,50.8,30.02,WNW,290,5.0,5.0,83,0.00,,,0.00,Wunderground v.1.15,2013-02-07 22:34:00,
2013-02-07 14:44:00,56.2,50.8,30.02,West,271,3.0,5.0,82,0.00,,,0.00,Wunderground v.1.15,2013-02-07 22:44:00,
2013-02-07 14:53:00,56.2,50.4,30.02,WSW,247,3.0,3.0,81,0.00,,,0.00,Wunderground v.1.15,2013-02-07 22:53:00,
2013-02-07 15:03:00,56.0,50.6,30.02,WSW,239,3.0,3.0,82,0.00,,,0.00,Wunderground v.1.15,2013-02-07 23:03:00,
2013-02-07 15:14:00,56.0,50.9,30.02,WNW,290,2.0,2.0,83,0.00,,,0.00,Wunderground v.1.15,2013-02-07 23:14:00,
2013-02-07 15:24:00,55.9,50.5,30.02,West,277,3.0,5.0,82,0.00,,,0.00,Wunderground v.1.15,2013-02-07 23:24:00,
2013-02-07 15:33:00,55.5,50.1,30.02,WNW,290,5.0,5.0,82,0.00,,,0.00,Wunderground v.1.15,2013-02-07 23:33:00,
2013-02-07 15:43:00,55.4,50.0,30.02,West,275,3.0,8.0,82,0.00,,,0.00,Wunderground v.1.15,2013-02-07 23:43:00,
2013-02-07 15:54:00,55.3,49.9,30.02,West,274,2.0,5.0,82,0.00,,,0.00,Wunderground v.1.15,2013-02-07 23:54:00,
2013-02-07 16:04:00,55.0,49.6,30.02,West,279,4.0,4.0,82,0.00,,,0.00,Wunderground v.1.15,2013-02-08 00:04:00,
2013-02-07 16:13:00,55.1,49.7,30.02,West,267,2.0,2.0,82,0.00,,,0.00,Wunderground v.1.15,2013-02-08 00:13:00,
2013-02-07 16:23:00,54.8,49.1,30.03,West,280,3.0,6.0,81,0.00,,,0.00,Wunderground v.1.15,2013-02-08 00:23:00,
2013-02-07 16:34:00,54.5,48.8,30.03,West,263,3.0,3.0,81,0.00,,,0.00,Wunderground v.1.15,2013-02-08 00:34:00,
2013-02-07 16:44:00,54.5,48.8,30.02,WNW,288,2.0,6.0,81,0.00,,,0.00,Wunderground v.1.15,2013-02-08 00:44:00,
2013-02-07 16:53:00,54.4,48.7,30.02,West,278,2.0,4.0,81,0.00,,,0.00,Wunderground v.1.15,2013-02-08 00:53:00,
2013-02-07 17:04:00,54.2,48.5,30.02,West,264,2.0,2.0,81,0.00,,,0.00,Wunderground v.1.15,2013-02-08 01:04:00,
2013-02-07 17:14:00,54.0,48.0,30.02,West,268,1.0,3.0,80,0.00,,,0.00,Wunderground v.1.15,2013-02-08 01:14:00,
2013-02-07 17:24:00,53.9,47.9,30.02,West,280,2.0,2.0,80,0.00,,,0.00,Wunderground v.1.15,2013-02-08 01:24:00,
2013-02-07 17:33:00,53.8,47.8,30.02,West,267,2.0,2.0,80,0.00,,,0.00,Wunderground v.1.15,2013-02-08 01:33:00,
2013-02-07 17:44:00,53.8,48.1,30.02,SW,234,1.0,2.0,81,0.00,,,0.00,Wunderground v.1.15,2013-02-08 01:44:00,
2013-02-07 17:54:00,53.7,47.7,30.01,SW,216,3.0,4.0,80,0.00,,,0.00,Wunderground v.1.15,2013-02-08 01:54:00,
2013-02-07 18:04:00,53.6,47.6,30.02,WSW,248,3.0,3.0,80,0.00,,,0.00,Wunderground v.1.15,2013-02-08 02:04:00,
2013-02-07 18:14:00,53.5,47.5,30.02,WSW,244,2.0,2.0,80,0.00,,,0.00,Wunderground v.1.15,2013-02-08 02:14:00,
2013-02-07 18:24:00,53.5,47.1,30.02,West,267,2.0,2.0,79,0.00,,,0.00,Wunderground v.1.15,2013-02-08 02:24:00,
2013-02-07 18:34:00,53.5,47.1,30.02,SW,227,1.0,1.0,79,0.00,,,0.00,Wunderground v.1.15,2013-02-08 02:34:00,
2013-02-07 18:44:00,53.4,46.4,30.02,SW,219,1.0,1.0,77,0.00,,,0.00,Wunderground v.1.15,2013-02-08 02:44:00,
2013-02-07 18:54:00,53.5,46.1,30.02,SSE,164,1.0,4.0,76,0.00,,,0.00,Wunderground v.1.15,2013-02-08 02:54:00,
2013-02-07 19:04:00,53.5,45.8,30.02,SSW,198,0.0,0.0,75,0.00,,,0.00,Wunderground v.1.15,2013-02-08 03:04:00,
2013-02-07 19:14:00,53.5,45.4,30.01,SSW,192,2.0,5.0,74,0.00,,,0.00,Wunderground v.1.15,2013-02-08 03:14:00,
2013-02-07 19:24:00,53.5,45.8,30.01,SSE,153,1.0,2.0,75,0.00,,,0.00,Wunderground v.1.15,2013-02-08 03:24:00,
2013-02-07 19:34:00,53.2,45.5,30.00,South,181,1.0,1.0,75,0.00,,,0.00,Wunderground v.1.15,2013-02-08 03:34:00,
2013-02-07 19:44:00,53.0,45.3,30.01,South,180,0.0,2.0,75,0.00,,,0.00,Wunderground v.1.15,2013-02-08 03:44:00,
2013-02-07 19:54:00,52.8,45.4,30.00,South,175,0.0,0.0,76,0.00,,,0.00,Wunderground v.1.15,2013-02-08 03:54:00,
2013-02-07 20:04:00,52.8,45.4,30.00,SSE,164,0.0,0.0,76,0.00,,,0.00,Wunderground v.1.15,2013-02-08 04:04:00,
2013-02-07 20:14:00,52.9,45.5,30.00,South,188,1.0,1.0,76,0.00,,,0.00,Wunderground v.1.15,2013-02-08 04:14:00,
2013-02-07 20:24:00,53.0,46.0,30.00,South,173,0.0,0.0,77,0.00,,,0.00,Wunderground v.1.15,2013-02-08 04:24:00,
2013-02-07 20:34:00,53.2,46.2,30.00,South,180,2.0,4.0,77,0.00,,,0.00,Wunderground v.1.15,2013-02-08 04:34:00,
2013-02-07 20:44:00,53.4,46.0,30.00,South,180,3.0,4.0,76,0.00,,,0.00,Wunderground v.1.15,2013-02-08 04:44:00,
2013-02-07 20:54:00,53.5,46.5,30.01,South,177,3.0,3.0,77,0.00,,,0.00,Wunderground v.1.15,2013-02-08 04:54:00,
2013-02-07 21:04:00,53.5,47.1,30.01,SSW,210,1.0,1.0,79,0.00,,,0.00,Wunderground v.1.15,2013-02-08 05:04:00,
2013-02-07 21:14:00,53.6,47.2,30.01,SSW,196,2.0,2.0,79,0.00,,,0.00,Wunderground v.1.15,2013-02-08 05:14:00,
2013-02-07 21:24:00,53.5,45.8,30.01,WSW,237,0.0,0.0,75,0.00,,,0.00,Wunderground v.1.15,2013-02-08 05:24:00,
2013-02-07 21:34:00,53.5,45.8,30.01,WNW,288,0.0,0.0,75,0.00,,,0.00,Wunderground v.1.15,2013-02-08 05:34:00,
2013-02-07 21:44:00,53.6,45.2,30.01,West,277,0.0,1.0,73,0.00,,,0.00,Wunderground v.1.15,2013-02-08 05:44:00,
2013-02-07 21:54:00,53.6,46.6,30.01,WSW,243,1.0,3.0,77,0.00,,,0.00,Wunderground v.1.15,2013-02-08 05:54:00,
2013-02-07 22:04:00,53.4,46.7,30.01,WNW,300,2.0,2.0,78,0.00,,,0.00,Wunderground v.1.15,2013-02-08 06:04:00,
2013-02-07 22:14:00,53.2,45.8,30.01,WNW,299,1.0,1.0,76,0.00,,,0.00,Wunderground v.1.15,2013-02-08 06:14:00,
2013-02-07 22:24:00,53.2,45.5,30.01,West,277,0.0,0.0,75,0.00,,,0.00,Wunderground v.1.15,2013-02-08 06:24:00,
2013-02-07 22:34:00,53.0,45.3,30.01,West,277,0.0,0.0,75,0.00,,,0.00,Wunderground v.1.15,2013-02-08 06:34:00,
2013-02-07 22:44:00,52.9,45.5,30.01,West,277,0.0,0.0,76,0.00,,,0.00,Wunderground v.1.15,2013-02-08 06:44:00,
2013-02-07 22:54:00,52.7,45.3,30.01,West,277,0.0,0.0,76,0.00,,,0.00,Wunderground v.1.15,2013-02-08 06:54:00,
2013-02-07 23:04:00,52.4,45.4,30.01,West,277,0.0,0.0,77,0.00,,,0.00,Wunderground v.1.15,2013-02-08 07:04:00,
2013-02-07 23:14:00,52.2,45.5,30.00,West,277,0.0,0.0,78,0.00,,,0.00,Wunderground v.1.15,2013-02-08 07:14:00,
2013-02-07 23:24:00,52.2,45.2,30.01,WSW,250,0.0,0.0,77,0.00,,,0.00,Wunderground v.1.15,2013-02-08 07:24:00,
2013-02-07 23:34:00,52.4,45.1,30.01,SW,231,0.0,0.0,76,0.00,,,0.00,Wunderground v.1.15,2013-02-08 07:34:00,
2013-02-07 23:44:00,52.8,45.4,30.00,WNW,284,1.0,4.0,76,0.00,,,0.00,Wunderground v.1.15,2013-02-08 07:44:00,
2013-02-07 23:54:00,53.2,46.5,30.00,West,269,1.0,2.0,78,0.00,,,0.00,Wunderground v.1.15,2013-02-08 07:54:00,